Weather in Dudorovskiy

Russia / Kaluga Oblast     53°39′28″N   35°22′01″E
temp.,
°C
wind,
m/s
gust,
m/s
humid.,
%
clouds,
%
prec.,
mm/h
press.,
hPa
HPBL,
m
18 april, sun
sun1800:00+6s2596100 0.9 1017337
03:00+5ssw2396100 3.9 1017714
06:00+5s1395100 0.6 1017254
09:00+6sw1283100 0.6 1018576
12:00+10n1168100 0.1 10181058
15:00+10nne226598 0.6 1018956
18:00+8ene3684100 1.0 1019923
21:00+6ne389190 2.2 1019401
19 april, mon
mon1900:00+6nne389499 0.1 1019297
03:00+6ne3895100 0.3 1019463
06:00+5ne41097100 0.1 1019463
09:00+6ne4889100 0.1 1020720
12:00+8ne4780100 0.1 1020948
15:00+7ene5887100 0.3 1020931
18:00+6ne4991100 0.1 10201057
21:00+4ne51095100 0.3 10201097
20 april, tue
tue2000:00+4ne4997100 0.5 1019843
03:00+3ne41097100 1.0 1018489
06:00+2ne41097100 0.7 1017450
09:00+4ene3997100 0.9 1016651
12:00+5ene3895100 0.3 1015569
15:00+6ene5992100 0.3 1013542
18:00+4ne41197100 0.0 1011605
21:00+3ne51296100 0.7 1007616
21 april, wed
wed2100:00+1nne51297100 4.1 1004518
03:00+1nnw41098100 5.5 1001383
06:00+1nw41098100 1.8 1000373
09:00+1w51197100 2.6 1002552
12:00+3wsw51091100 0.1 1005959
15:00+4wsw51096100 0.1 1008986
18:00+5wsw3987100 0.1 1010910
21:00+3ssw289477 0.3 1011212
22 april, thu
thu2200:00+3s2895100 0.1 1012226
03:00+2ssw259820 0.2 1013113
06:00+1ssw269698 0.0 1015121
09:00+7ssw357866 0.0 1015364
12:00+12ssw466722 0.2 10151302
15:00+13ssw47647 1.6 10151509
18:00+12s377539 0.6 1015321
21:00+7s29938 0.9 1016168